Tacoma, WA

2:13 PM PDT on June 28, 2017 (GMT -0700)
McChord Air Force Base

Weather History for KTCM - November, 2012

Change the Weather History Date:

Saturday, November 24, 2012

  Actual Average Record
Temperature  
Mean Temperature 40 °F -  
Max Temperature 46 °F 47 °F 62 °F (1974)
Min Temperature 35 °F 34 °F 4 °F (1985)
Degree Days  
Heating Degree Days 24    
Moisture  
Dew Point 41 °F    
Average Humidity 97    
Maximum Humidity 100    
Minimum Humidity 87    
Precipitation  
Precipitation 0.01 in - - ()
Sea Level Pressure  
Sea Level Pressure 30.24 in    
Wind  
Wind Speed 3 mph (South)    
Max Wind Speed 8 mph    
Max Gust Speed -    
Visibility 5 miles    
Events Fog , Rain    
Averages and records for this station are not official NWS values.
T = Trace of Precipitation, MM = Missing Value Source: NWS Daily Summary

Daily Weather History Graph

Daily Weather History Graph

Search for Another Location

Airport or City:

Trip Planner

Search our weather history database for the weather conditions in past years. The results will help you decide how hot, cold, wet, or windy it might be!

Date:

Astronomy

Nov. 24, 2012 Rise Set
Actual Time 7:27 AM PST 4:26 PM PST
Civil Twilight 6:53 AM PST 5:00 PM PST
Nautical Twilight 6:15 AM PST 5:38 PM PST
Astronomical Twilight 5:38 AM PST 6:14 PM PST
Moon 2:23 PM PST (11/24) 3:38 AM PST (11/24)
Length of Visible Light 10h 07m
Length of Day
8h 58m
Waxing Gibbous, 88% of the Moon is Illuminated
Nov 24
Waxing Gibbous
Nov 28
Full
Dec 6
Last Quarter
Dec 13
New
Dec 19
First Quarter

Hourly Weather History & Observations

Time (PST) Temp. Windchill Dew Point Humidity Pressure Visibility Wind Dir Wind Speed Gust Speed Precip Events Conditions
12:58 AM 46.0 °F 43.1 °F 45.7 °F 99% 30.18 in 10.0 mi SSW 5.8 mph - N/A   Overcast
1:58 AM 45.0 °F 42.6 °F 44.6 °F 99% 30.20 in 10.0 mi South 4.6 mph - N/A   Overcast
1:59 AM 44.6 °F 42.2 °F 44.6 °F 100% 30.18 in 10.0 mi South 4.6 mph - N/A Rain Light Rain
2:37 AM 46.4 °F 42.9 °F 42.8 °F 87% 30.19 in 10.0 mi SW 6.9 mph - N/A   Overcast
2:50 AM 46.4 °F 44.3 °F 42.8 °F 87% 30.19 in 10.0 mi SSW 4.6 mph - N/A Rain Light Rain
2:58 AM 45.3 °F - 43.7 °F 94% 30.22 in 10.0 mi NNE 1.2 mph - 0.01 in Rain Light Rain
2:59 AM 44.6 °F - 44.6 °F 100% 30.20 in 10.0 mi Calm Calm - N/A   Overcast
3:09 AM 44.6 °F - 44.6 °F 100% 30.20 in 10.0 mi Calm Calm - N/A Rain Light Rain
3:30 AM 44.6 °F - 44.6 °F 100% 30.20 in 10.0 mi SSE 2.3 mph - N/A   Overcast
3:32 AM 44.6 °F - 44.6 °F 100% 30.20 in 10.0 mi SSE 2.3 mph - N/A Rain Light Rain
3:43 AM 44.6 °F - 44.6 °F 100% 30.20 in 10.0 mi SE 2.3 mph - N/A   Overcast
3:48 AM 44.6 °F - 44.6 °F 100% 30.20 in 10.0 mi ESE 2.3 mph - N/A Rain Light Rain
3:57 AM 44.6 °F - 44.6 °F 100% 30.20 in 10.0 mi ESE 2.3 mph - N/A   Overcast
3:58 AM 44.6 °F - 44.4 °F 99% 30.22 in 10.0 mi ESE 2.3 mph - 0.00 in   Overcast
4:58 AM 40.6 °F 35.4 °F 40.5 °F 99% 30.22 in 5.0 mi South 8.1 mph - 0.00 in   Partly Cloudy
5:53 AM 39.2 °F - 39.2 °F 100% 30.22 in 1.5 mi SE 1.2 mph - N/A   Clear
5:58 AM 39.2 °F - 39.2 °F 100% 30.24 in 1.0 mi SE 1.2 mph - N/A   Clear
6:03 AM 41.0 °F 39.0 °F 39.2 °F 93% 30.22 in 1.8 mi SSE 3.5 mph - N/A   Clear
6:08 AM 41.0 °F - 39.2 °F 93% 30.22 in 3.0 mi ESE 1.2 mph - N/A   Clear
6:13 AM 37.4 °F - 37.4 °F 100% 30.22 in 1.2 mi Calm Calm - N/A   Clear
6:18 AM 37.4 °F - 37.4 °F 100% 30.22 in 0.8 mi Calm Calm - N/A   Clear
6:23 AM 39.2 °F - 39.2 °F 100% 30.22 in 0.8 mi Calm Calm - N/A   Clear
6:38 AM 39.2 °F - 37.4 °F 93% 30.22 in 0.5 mi NNE 2.3 mph - N/A Fog Fog
6:43 AM 39.2 °F - 39.2 °F 100% 30.23 in 0.8 mi North 1.2 mph - N/A   Scattered Clouds
6:48 AM 39.2 °F - 39.2 °F 100% 30.23 in 0.8 mi NNW 1.2 mph - N/A   Scattered Clouds
6:53 AM 37.4 °F - 37.4 °F 100% 30.23 in 0.8 mi Variable 1.2 mph - N/A   Mostly Cloudy
6:58 AM 38.5 °F - 38.1 °F 99% 30.25 in 1.0 mi Calm Calm - N/A   Mostly Cloudy
7:13 AM 37.4 °F - 37.4 °F 100% 30.23 in 0.8 mi Calm Calm - N/A   Mostly Cloudy
7:18 AM 37.4 °F - 37.4 °F 100% 30.23 in 0.5 mi East 2.3 mph - N/A Fog Fog
7:28 AM 35.6 °F 32.8 °F 35.6 °F 100% 30.23 in 0.5 mi SE 3.5 mph - N/A Fog Fog
7:38 AM 35.6 °F 32.8 °F 35.6 °F 100% 30.23 in 0.2 mi SE 3.5 mph - N/A Fog Fog
7:43 AM 37.4 °F 33.8 °F 37.4 °F 100% 30.23 in 0.5 mi SSE 4.6 mph - N/A Fog Fog
7:48 AM 35.6 °F 30.7 °F 35.6 °F 100% 30.23 in 0.5 mi SSE 5.8 mph - N/A Fog Fog
7:58 AM 36.0 °F 33.3 °F 35.8 °F 99% 30.25 in 0.5 mi SE 3.5 mph - N/A Fog Fog
8:08 AM 35.6 °F - 35.6 °F 100% 30.23 in 0.8 mi Calm Calm - N/A   Clear
8:13 AM 35.6 °F - 35.6 °F 100% 30.24 in 0.8 mi South 2.3 mph - N/A   Clear
8:18 AM 37.4 °F 32.8 °F 35.6 °F 93% 30.24 in 1.0 mi South 5.8 mph - N/A   Clear
8:23 AM 37.4 °F 32.1 °F 37.4 °F 100% 30.24 in 3.0 mi South 6.9 mph - N/A   Clear
8:58 AM 37.2 °F 33.6 °F 36.9 °F 99% 30.27 in 6.0 mi South 4.6 mph - N/A   Scattered Clouds
9:03 AM 37.4 °F 34.9 °F 35.6 °F 93% 30.24 in 2.5 mi South 3.5 mph - N/A   Scattered Clouds
9:08 AM 35.6 °F 32.8 °F 35.6 °F 100% 30.25 in 2.0 mi SSE 3.5 mph - N/A   Partly Cloudy
9:13 AM 35.6 °F - 35.6 °F 100% 30.25 in 5.0 mi South 2.3 mph - N/A   Partly Cloudy
9:23 AM 35.6 °F - 35.6 °F 100% 30.25 in 1.2 mi Calm Calm - N/A   Partly Cloudy
9:28 AM 37.4 °F - 37.4 °F 100% 30.25 in 0.5 mi Calm Calm - N/A Fog Fog
9:33 AM 39.2 °F - 39.2 °F 100% 30.25 in 0.5 mi Calm Calm - N/A Fog Fog
9:43 AM 41.0 °F - 39.2 °F 93% 30.25 in 0.5 mi Calm Calm - N/A Fog Fog
9:48 AM 41.0 °F - 41.0 °F 100% 30.25 in 1.0 mi East 1.2 mph - N/A   Mist
9:53 AM 41.0 °F - 41.0 °F 100% 30.25 in 1.2 mi SE 2.3 mph - N/A   Partly Cloudy
9:58 AM 42.1 °F - 41.9 °F 99% 30.27 in 1.8 mi SE 2.3 mph - N/A   Partly Cloudy
10:03 AM 42.8 °F - 42.8 °F 100% 30.25 in 4.0 mi SSE 2.3 mph - N/A   Clear
10:30 AM 44.6 °F - 44.6 °F 100% 30.25 in 10.0 mi Variable 2.3 mph - N/A   Partly Cloudy
10:50 AM 46.4 °F 43.5 °F 46.4 °F 100% 30.25 in 10.0 mi SSW 5.8 mph - N/A   Mostly Cloudy
10:55 AM 46.4 °F 42.9 °F 46.4 °F 100% 30.25 in 10.0 mi SSW 6.9 mph - N/A   Mostly Cloudy
10:58 AM 46.2 °F 43.3 °F 46.0 °F 99% 30.27 in 10.0 mi SW 5.8 mph - N/A   Mostly Cloudy
11:08 AM 46.4 °F 44.3 °F 46.4 °F 100% 30.25 in 10.0 mi SSW 4.6 mph - N/A   Mostly Cloudy
11:13 AM 46.4 °F 44.3 °F 46.4 °F 100% 30.25 in 10.0 mi SSW 4.6 mph - N/A   Overcast
11:28 AM 46.4 °F 43.5 °F 46.4 °F 100% 30.25 in 10.0 mi SW 5.8 mph - N/A   Mostly Cloudy
11:33 AM 46.4 °F 43.5 °F 44.6 °F 93% 30.25 in 10.0 mi WSW 5.8 mph - N/A   Mostly Cloudy
11:38 AM 46.4 °F 44.3 °F 42.8 °F 87% 30.25 in 10.0 mi WSW 4.6 mph - N/A   Mostly Cloudy
11:48 AM 46.4 °F 44.3 °F 42.8 °F 87% 30.25 in 10.0 mi West 4.6 mph - N/A   Scattered Clouds
11:58 AM 46.4 °F 44.3 °F 42.8 °F 87% 30.27 in 10.0 mi WSW 4.6 mph - N/A   Mostly Cloudy
12:08 PM 46.4 °F - 42.8 °F 87% 30.24 in 10.0 mi Variable 1.2 mph - N/A   Mostly Cloudy
12:58 PM 46.8 °F - 43.3 °F 88% 30.26 in 10.0 mi WSW 5.8 mph - N/A   Scattered Clouds
1:23 PM 46.4 °F 43.5 °F 42.8 °F 87% 30.24 in 10.0 mi West 5.8 mph - N/A   Mostly Cloudy
1:58 PM 46.4 °F 44.3 °F 42.8 °F 87% 30.26 in 10.0 mi WNW 4.6 mph - N/A   Mostly Cloudy
2:58 PM 46.4 °F 45.2 °F 42.6 °F 87% 30.26 in 10.0 mi West 3.5 mph - N/A   Overcast
3:58 PM 45.9 °F 43.6 °F 42.3 °F 87% 30.25 in 10.0 mi SW 4.6 mph - N/A   Overcast
4:58 PM 44.8 °F 42.4 °F 42.6 °F 92% 30.25 in 10.0 mi WNW 4.6 mph - N/A   Overcast
5:03 PM 44.6 °F 42.2 °F 42.8 °F 93% 30.23 in 10.0 mi WNW 4.6 mph - N/A   Overcast
5:23 PM 44.6 °F 43.1 °F 42.8 °F 93% 30.23 in 10.0 mi NNW 3.5 mph - N/A   Overcast
5:58 PM 44.2 °F - 42.1 °F 92% 30.25 in 10.0 mi North 2.3 mph - N/A   Overcast
6:58 PM 44.4 °F - 41.9 °F 91% 30.25 in 10.0 mi NE 2.3 mph - N/A   Overcast
7:18 PM 44.6 °F - 41.0 °F 87% 30.23 in 10.0 mi NE 2.3 mph - N/A   Overcast
7:58 PM 43.9 °F - 42.6 °F 95% 30.25 in 10.0 mi North - - N/A   Overcast
8:58 PM 43.5 °F - 43.3 °F 99% 30.25 in 10.0 mi South 2.3 mph - N/A   Overcast
9:33 PM 42.8 °F - 42.8 °F 100% 30.24 in 10.0 mi ESE 1.2 mph - N/A   Overcast
9:58 PM 43.0 °F - 42.8 °F 99% 30.27 in 10.0 mi Calm Calm - N/A   Overcast
10:28 PM 41.0 °F - 41.0 °F 100% 30.25 in 1.5 mi South 2.3 mph - N/A   Mostly Cloudy
10:33 PM 39.2 °F - 39.2 °F 100% 30.25 in 1.2 mi South 2.3 mph - N/A   Overcast
10:38 PM 39.2 °F - 39.2 °F 100% 30.25 in 1.5 mi South 2.3 mph - N/A   Overcast
10:43 PM 39.2 °F - 39.2 °F 100% 30.25 in 2.5 mi Calm Calm - N/A   Overcast
10:53 PM 41.0 °F - 39.2 °F 93% 30.25 in 1.5 mi South 1.2 mph - N/A   Overcast
10:58 PM 40.1 °F - 39.9 °F 99% 30.27 in 1.0 mi Calm Calm - N/A   Overcast
11:03 PM 39.2 °F - 39.2 °F 100% 30.26 in 0.8 mi Calm Calm - N/A   Overcast
11:13 PM 39.2 °F - 39.2 °F 100% 30.25 in 0.5 mi South 2.3 mph - N/A Fog Fog
11:18 PM 39.2 °F - 37.4 °F 93% 30.25 in 0.5 mi South 2.3 mph - N/A Fog Fog
11:28 PM 39.2 °F - 39.2 °F 100% 30.26 in 0.5 mi SSW 2.3 mph - N/A Fog Fog
11:33 PM 39.2 °F - 39.2 °F 100% 30.27 in 1.0 mi South 2.3 mph - N/A   Mostly Cloudy
11:38 PM 37.4 °F - 37.4 °F 100% 30.27 in 0.8 mi Calm Calm - N/A   Mostly Cloudy
11:43 PM 37.4 °F - 37.4 °F 100% 30.27 in 0.8 mi SSE 1.2 mph - N/A   Mostly Cloudy
11:48 PM 37.4 °F - 37.4 °F 100% 30.27 in 0.8 mi SSE 2.3 mph - N/A   Overcast
11:53 PM 37.4 °F - 37.4 °F 100% 30.27 in 1.5 mi SSE 2.3 mph - N/A   Overcast
11:58 PM 37.4 °F 34.9 °F 37.4 °F 100% 30.29 in 3.0 mi South 3.5 mph - N/A   Overcast